Dewpoint
62 63 63 63 63 63 63 63 63 63 63 63 63 63 64 64 65 64 65 65 65 64 64 64 64 64 64 64 63 64 65 65 65 65 64 64 64 65 64 64 64 64 64 64 63 64 62 62 61 61 61 61 60 60 60 60 60 60 59 59 59 58 58 59 59 59 58 57 58 58 58 58 60 58 57 58 59 60 61 58 57 57 58 58 59
62 62 63 63 63 63 63 63 64 63 63 62 62 63 65 65 65 65 65 64 63 64 64 63 63 63 63 64 64 65 64 63 63 63 64 64 65 64 64 63 63 62 62 61 61 60 60 60 59 59 60 59 60 60 60 61 58 58 58 58 59 58 57 58 58 58 56 56 56 57 55 57 57 57 57 57 58 59 58 55 54 55 56 56 56
62 62 62 63 63 63 63 63 63 63 63 62 63 64 65 65 65 64 64 63 63 64 63 63 62 63 64 64 64 64 65 64 64 65 64 62 62 62 61 61 60 60 60 60 59 58 58 58 58 58 58 59 58 58 58 58 57 57 57 57 56 57 57 58 57 57 54 55 56 55 51 54 55 55 55 56 57 58 57 54 53 54 55 55 54
60 61 61 62 63 63 63 63 63 63 63 63 64 64 65 65 65 65 64 63 63 64 64 63 64 64 64 64 64 64 64 65 63 63 61 60 59 59 58 58 58 58 58 58 58 58 58 57 57 57 57 58 57 57 56 56 56 56 56 57 55 55 55 55 57 55 56 56 54 54 54 54 53 50 53 54 55 56 55 53 52 52 54 53 52
60 61 61 62 62 62 63 63 63 63 63 63 64 64 65 65 65 64 64 63 64 65 64 64 64 64 64 64 64 63 64 63 62 61 61 60 58 57 57 57 57 57 57 57 57 56 57 57 57 56 56 56 56 56 56 55 55 55 55 56 55 54 53 53 54 55 53 56 56 54 53 52 53 52 53 52 53 54 54 52 52 49 52 52 52
61 61 61 62 62 62 63 63 63 63 63 64 64 65 65 65 65 64 64 64 64 64 64 64 63 63 63 62 62 62 61 61 59 59 58 57 56 56 56 56 56 56 56 56 56 56 55 56 56 55 55 56 56 55 55 54 54 54 55 55 54 54 52 52 51 53 53 53 53 55 56 53 52 52 50 49 53 52 53 52 49 48 50 51 50
61 61 62 61 62 62 62 62 62 63 63 64 65 65 65 65 65 64 64 64 64 64 64 63 63 63 62 62 62 62 61 61 60 59 56 56 55 55 55 55 55 55 55 55 55 55 54 54 55 54 54 55 56 53 53 53 53 54 54 54 53 53 51 50 50 50 50 51 51 52 53 52 51 50 48 50 48 51 51 49 49 48 48 50 49
61 61 61 62 62 62 62 62 62 63 64 64 64 64 64 64 64 64 64 64 64 64 63 62 62 62 62 62 62 62 61 59 58 56 56 56 54 54 54 54 54 54 54 54 55 55 54 53 54 54 54 54 54 52 52 52 52 53 53 53 53 52 51 49 49 49 48 48 51 49 50 49 49 48 48 48 49 47 46 47 48 46 46 48 48
61 61 61 61 62 62 62 62 63 63 64 64 64 64 64 64 64 64 63 63 64 64 63 63 62 62 62 62 62 62 60 58 57 56 55 55 54 54 53 53 53 53 53 53 52 53 54 52 53 53 53 53 54 52 51 51 51 51 50 50 50 50 51 50 49 48 48 48 47 47 47 47 47 46 46 46 47 44 44 43 43 42 42 44 46
61 61 61 62 62 62 62 63 63 63 63 64 64 64 64 64 64 62 62 63 63 63 63 62 62 62 61 62 62 61 59 57 56 55 54 54 53 53 53 52 52 52 51 51 51 52 52 52 51 52 52 53 52 50 50 50 50 50 50 50 49 48 49 49 48 47 47 47 46 46 45 45 44 43 43 43 44 45 42 41 41 40 37 39 44
61 61 61 61 62 62 63 62 63 63 63 63 63 63 63 63 62 62 62 63 63 63 63 62 62 62 62 62 61 60 58 56 55 54 53 52 52 52 52 51 51 50 51 50 50 50 51 52 51 51 52 53 51 49 49 49 49 49 49 48 48 48 47 47 47 46 45 45 44 44 44 43 43 42 42 42 42 41 40 39 39 40 39 39 41
61 61 61 61 61 62 62 62 62 62 63 63 63 63 62 62 62 62 62 62 63 63 63 62 62 62 62 62 61 59 57 55 54 53 52 52 52 51 51 50 50 50 49 48 48 49 49 49 51 50 50 49 49 49 49 49 49 48 47 47 46 46 46 46 45 44 43 42 42 42 42 42 42 41 41 41 41 40 39 38 38 39 39 40 39
60 61 60 61 61 61 61 61 62 62 62 62 62 61 61 62 61 61 61 62 62 62 62 62 62 62 61 61 60 59 57 54 53 52 52 51 51 51 50 49 48 48 47 47 47 48 49 48 48 48 48 49 49 48 48 48 48 47 46 45 45 44 43 43 42 42 42 41 41 41 41 40 40 41 40 40 40 40 39 37 37 38 37 37 37
60 60 60 60 61 61 61 61 61 61 61 60 60 60 60 60 60 60 59 59 59 59 60 60 59 59 58 58 57 57 55 53 53 52 51 51 51 50 49 48 48 47 47 47 47 47 47 48 47 47 48 48 49 48 48 48 47 46 45 44 43 43 42 42 41 41 41 41 41 39 39 39 39 40 39 39 39 39 38 37 37 36 36 36 37
60 60 60 60 61 61 61 61 61 60 59 59 59 58 58 58 57 57 56 56 57 56 56 56 56 55 55 55 55 55 54 53 52 52 51 51 50 49 48 48 47 47 47 47 47 46 47 47 47 46 47 46 46 46 46 45 45 45 45 44 43 42 41 42 40 40 40 39 39 39 40 39 39 39 39 39 39 39 38 38 37 35 34 34 34
60 60 60 60 61 61 60 60 60 59 58 58 57 57 57 56 55 55 55 55 55 55 55 54 54 54 54 54 54 54 54 53 52 52 51 51 50 49 48 48 48 47 46 45 45 45 44 45 45 45 46 46 46 45 45 44 44 43 43 43 42 44 41 40 39 39 39 39 39 39 38 39 39 39 40 39 39 39 38 38 38 37 36 34 33
59 60 60 60 60 60 60 60 59 58 57 57 56 56 55 54 54 54 53 54 54 54 54 54 54 54 54 53 53 53 52 51 51 51 51 51 50 49 48 48 47 46 46 46 44 44 44 44 44 44 45 45 44 44 44 43 43 43 42 42 41 41 41 39 39 39 39 38 38 39 39 39 39 39 39 39 39 38 38 38 38 38 37 35 33
59 60 60 60 60 60 59 59 58 57 56 56 55 55 54 54 53 53 53 53 53 53 53 53 53 52 52 52 52 52 52 51 51 50 51 50 49 48 47 45 44 44 44 44 42 42 43 46 43 43 44 44 44 44 43 43 43 42 42 42 42 41 40 40 40 39 39 39 40 38 38 37 38 38 38 38 39 38 38 38 38 38 38 35 34
59 59 59 59 59 59 58 58 57 56 55 55 54 54 53 53 53 52 52 52 53 53 53 53 53 52 52 52 51 51 51 51 51 51 50 49 48 46 44 43 42 43 43 41 41 41 42 42 42 42 42 43 43 44 43 42 42 42 42 41 41 40 40 40 40 40 40 39 38 37 37 37 37 37 37 37 38 39 38 38 38 39 37 36 35
59 59 59 59 59 58 58 57 56 55 54 54 53 53 52 53 53 52 52 52 52 52 52 52 52 52 52 51 51 51 51 50 50 50 49 47 44 42 41 41 41 42 40 40 40 41 41 41 41 41 42 42 42 43 43 42 41 41 41 40 40 40 39 39 39 40 39 38 37 37 37 36 37 36 36 37 37 38 39 38 38 38 37 37 37
58 58 59 59 58 58 57 56 55 54 54 53 53 52 52 52 52 52 51 51 51 51 51 51 51 51 51 51 51 51 50 50 50 49 46 44 43 42 41 40 40 39 39 39 40 40 40 41 41 42 41 41 41 42 42 42 41 40 40 40 40 40 39 39 40 39 39 38 38 36 37 37 37 36 36 37 37 37 38 38 39 37 36 37 37
58 58 58 58 58 57 56 55 54 53 53 52 52 52 52 51 51 51 51 51 50 51 51 51 51 51 50 50 50 50 50 49 48 46 45 43 42 41 40 39 38 39 39 39 39 40 40 40 40 40 40 40 41 41 42 42 41 40 40 40 40 39 38 38 38 38 38 38 37 36 36 37 37 35 36 36 37 37 37 37 37 38 37 37 37
57 58 58 58 57 56 55 54 53 53 52 52 51 51 51 51 51 51 50 50 50 50 50 50 50 50 50 50 49 49 48 47 45 44 43 41 40 39 39 38 38 38 39 38 38 38 39 39 39 39 39 40 40 41 41 41 41 40 40 40 40 38 38 38 37 37 37 37 36 37 36 36 37 34 35 35 36 36 38 37 37 38 37 37 37
58 57 57 57 57 55 54 53 53 52 52 51 51 51 50 50 50 50 50 50 50 50 50 50 50 50 49 49 48 47 45 44 43 43 41 40 39 39 39 37 37 37 37 38 37 38 38 38 38 38 38 39 39 40 40 41 40 40 39 39 39 38 38 38 38 38 38 37 36 36 35 36 36 34 34 34 35 35 36 37 37 37 38 37 38
57 57 57 57 56 54 54 53 53 52 51 51 51 50 50 50 50 50 49 49 49 49 49 49 49 49 48 47 46 45 44 44 43 41 40 39 38 38 38 36 36 36 36 37 38 38 37 37 38 37 38 38 38 39 40 40 41 40 39 39 39 39 39 39 39 39 42 37 38 35 36 35 35 34 34 34 34 34 35 36 36 36 37 37 38
57 57 56 56 55 54 53 53 52 52 51 51 50 50 49 49 49 49 49 49 49 49 48 48 48 47 47 46 45 44 44 43 42 41 39 39 38 37 37 37 36 35 36 36 36 37 38 36 37 37 37 37 38 38 39 40 40 40 40 39 39 39 39 39 38 38 38 39 37 36 36 36 35 34 34 34 34 34 34 35 35 35 35 36 37
56 56 56 56 55 54 53 53 52 51 51 50 50 49 49 49 49 49 49 49 48 48 47 47 47 47 46 46 45 44 44 43 42 41 40 38 37 37 36 36 36 35 35 35 35 36 37 36 36 37 37 37 37 38 38 38 39 39 39 38 38 38 38 38 37 38 38 38 37 38 39 37 36 35 35 35 35 34 35 35 38 35 35 36 36
56 56 56 55 54 53 52 52 51 51 50 50 49 49 48 48 48 48 48 48 48 47 47 46 46 46 45 45 45 44 43 42 41 40 39 38 38 37 37 37 36 35 35 35 35 36 37 36 37 37 38 39 37 37 37 37 38 39 40 38 38 38 38 37 37 37 38 38 38 38 37 37 37 37 37 36 35 35 35 34 34 35 35 35 35
55 55 55 55 54 53 52 51 51 50 49 49 49 48 48 48 48 48 48 47 47 47 46 46 45 45 44 44 44 44 43 43 41 40 39 39 38 38 38 37 37 37 37 35 35 35 35 35 35 36 36 37 38 38 37 37 38 38 38 39 38 38 37 37 36 36 36 36 36 36 37 38 41 40 43 42 40 39 37 35 34 34 36 36 35
55 55 55 55 54 53 52 51 50 49 49 48 48 48 48 47 47 48 47 47 47 46 46 45 44 44 44 44 44 44 42 42 41 40 40 39 38 38 37 36 35 35 35 35 34 35 34 34 35 35 36 36 37 37 40 41 43 39 37 39 39 38 37 37 37 35 34 36 36 35 40 40 40 41 43 41 38 38 39 38 36 35 35 35 35
55 55 54 54 53 52 52 51 50 49 49 48 48 47 47 47 47 47 47 47 46 46 45 45 44 44 44 44 43 42 42 42 41 41 40 39 38 37 35 34 34 34 34 36 33 33 34 34 34 34 35 36 36 37 39 38 40 41 39 39 39 38 37 36 35 34 33 37 36 35 35 39 40 39 41 40 38 37 37 37 37 38 38 36 34
54 54 54 54 53 52 51 50 50 49 48 48 47 47 47 47 47 47 47 47 46 45 45 45 44 44 43 43 42 42 42 42 41 40 39 37 35 34 33 33 33 33 34 33 33 33 33 34 34 34 35 35 36 39 38 38 39 40 41 41 39 39 38 36 35 34 34 36 34 34 34 35 35 38 40 37 37 37 37 37 37 36 36 36 36
54 54 54 53 52 52 51 50 49 49 48 48 47 47 47 47 46 46 47 46 46 46 45 44 43 43 42 43 42 42 42 42 41 39 38 35 33 33 33 32 33 34 33 32 32 33 33 33 33 34 34 35 35 38 37 38 38 38 39 40 38 38 37 36 35 34 34 33 33 35 35 35 33 39 40 35 35 35 37 37 37 36 35 36 34
54 54 54 53 52 51 51 51 50 48 48 47 47 47 47 48 47 46 46 46 46 46 45 44 43 43 43 43 42 41 41 41 40 39 37 35 33 33 33 34 34 34 32 32 32 32 32 33 33 34 34 34 34 37 37 37 37 37 37 38 37 37 36 35 35 34 34 34 33 33 33 35 35 34 34 36 35 34 34 33 32 31 31 33 34
54 54 54 53 52 51 51 50 49 48 48 47 47 47 47 47 46 46 46 46 46 45 44 44 43 43 43 43 43 42 41 41 40 39 37 36 35 35 34 34 33 32 32 32 32 32 33 34 32 32 33 33 34 37 36 36 36 36 36 37 37 37 36 35 35 36 35 34 34 34 33 35 35 34 35 37 35 35 34 32 31 31 30 31 31
54 54 54 53 52 51 50 49 49 48 47 47 47 47 46 46 46 46 45 46 46 45 44 44 43 42 42 43 43 42 42 41 41 40 39 38 37 36 34 35 35 34 33 34 33 33 32 31 31 31 31 31 32 36 36 36 36 36 36 36 35 35 34 34 34 34 34 35 35 34 35 36 35 33 36 36 36 37 32 31 31 31 30 30 30
54 54 54 53 52 52 50 49 48 47 47 47 47 47 46 46 45 45 45 45 45 43 43 43 43 42 42 42 42 42 42 41 41 40 39 39 38 37 37 37 35 35 34 33 32 32 32 31 32 31 30 29 30 35 36 36 35 35 35 34 34 34 33 32 32 33 33 34 34 35 37 36 34 33 36 35 35 38 31 30 30 30 30 29 29
54 54 53 53 52 52 50 48 47 47 47 47 47 46 46 45 45 44 44 44 44 43 43 43 43 42 43 41 41 41 40 40 40 39 39 39 39 38 38 38 35 35 34 34 34 33 31 32 30 29 30 30 29 34 36 36 36 36 35 32 32 32 31 32 31 32 33 32 34 38 39 35 34 34 36 35 35 36 31 31 30 30 28 27 27
54 53 52 52 51 50 49 48 47 47 47 47 47 47 46 45 45 44 44 44 43 41 42 42 42 42 42 43 41 41 40 40 40 40 39 39 39 39 39 38 36 36 35 35 36 33 32 30 30 31 38 31 29 34 35 36 36 36 35 31 32 31 31 29 30 31 32 32 32 35 37 37 36 36 35 35 35 35 30 30 30 29 28 27 27
53 53 53 52 51 49 48 47 47 47 48 48 48 47 46 45 44 44 44 43 42 42 42 42 42 41 41 42 41 41 40 40 39 39 39 39 39 39 38 37 36 36 36 35 35 34 32 31 32 33 34 30 29 29 34 36 36 36 36 34 31 31 31 29 29 35 33 31 31 31 35 35 34 35 35 35 34 34 31 30 29 29 29 27 29
53 52 49 51 50 48 48 47 47 47 48 48 48 47 46 45 44 43 43 44 43 41 41 41 41 42 42 41 40 40 40 40 40 39 40 40 39 37 37 36 36 36 35 34 34 33 33 32 33 32 30 29 30 29 32 35 36 36 36 34 29 30 28 29 29 31 28 29 31 31 32 35 35 35 35 35 34 34 34 32 29 29 29 33 33
52 51 50 51 49 48 48 48 47 47 47 47 47 46 45 44 43 43 44 44 41 40 40 40 40 41 41 41 40 40 40 40 40 40 39 38 37 37 36 36 35 35 35 34 33 35 34 33 33 32 30 29 35 38 30 34 35 35 35 35 32 32 32 30 31 28 28 29 29 31 32 34 35 35 35 34 34 33 33 33 31 33 33 32 31
51 50 50 50 49 48 47 47 47 47 47 46 46 45 45 44 43 44 44 42 40 39 39 40 40 41 41 41 40 40 40 40 40 40 39 38 37 36 36 35 34 34 34 34 33 34 34 33 33 32 32 31 33 35 37 33 35 35 35 35 35 33 34 37 28 28 28 29 29 31 34 37 35 35 34 34 33 33 32 31 32 32 33 32 32
51 51 50 49 49 48 47 47 47 46 46 46 46 45 44 43 43 44 41 40 39 39 39 40 40 41 39 39 39 39 39 39 39 39 38 37 37 36 35 34 34 34 34 34 33 34 33 34 33 32 31 30 30 30 34 36 34 35 35 35 35 34 35 34 33 29 29 30 31 30 34 35 35 35 34 33 32 33 31 32 32 32 32 32 29
50 50 49 49 48 47 47 46 46 46 46 46 46 45 43 43 44 44 41 40 38 39 39 39 40 39 38 38 39 38 38 38 39 38 38 38 37 36 35 35 35 35 35 35 34 35 35 34 32 32 30 29 29 30 27 34 35 35 34 34 34 34 35 34 31 31 33 32 34 34 35 35 34 34 34 33 32 33 32 32 31 32 33 27 28
50 49 49 49 47 47 46 45 45 45 45 45 45 44 42 42 43 42 40 39 39 39 40 41 39 38 38 38 38 38 38 38 38 38 38 37 37 37 35 35 36 36 36 35 35 35 34 34 32 30 29 29 29 28 26 26 34 36 35 35 34 34 36 36 35 32 34 34 34 35 35 34 34 34 31 29 28 30 32 32 31 32 27 27 27
49 49 48 48 46 46 45 45 45 45 45 45 44 43 42 42 41 39 38 38 39 39 40 38 37 37 37 37 37 37 37 37 36 37 37 38 37 37 36 37 36 36 35 35 36 36 36 34 34 31 30 30 29 27 26 25 26 26 28 33 31 32 36 35 33 31 33 33 35 35 32 33 33 33 31 32 30 31 30 28 27 27 27 26 28
49 48 48 47 46 46 45 45 44 45 45 44 43 41 40 40 38 37 38 38 39 39 38 37 36 37 37 37 37 36 36 36 36 36 36 36 37 37 36 36 36 36 35 35 36 36 36 36 35 33 32 31 29 26 25 25 24 27 28 27 29 33 27 27 29 30 31 33 32 34 31 29 28 28 28 26 26 26 27 27 27 26 26 27 29
48 48 47 46 46 45 45 44 44 44 44 43 42 40 38 38 37 37 39 38 39 37 37 36 36 36 36 36 36 37 36 36 36 36 36 36 36 36 36 36 36 36 36 36 36 36 36 36 36 33 31 30 28 26 26 28 27 31 28 28 27 27 28 28 33 35 33 31 27 28 28 27 25 25 25 25 25 25 26 26 26 27 26 25 26
48 48 47 46 45 45 44 44 44 44 43 42 40 39 38 38 37 36 37 36 36 38 40 37 36 36 36 36 36 36 36 36 35 35 34 32 32 35 36 36 36 37 36 36 36 36 36 35 34 33 32 29 26 24 29 30 31 33 33 32 33 34 34 33 35 34 34 27 25 24 24 23 25 23 23 21 23 24 25 25 26 28 27 25 26
47 47 47 46 45 45 44 44 44 43 42 41 40 38 38 38 37 36 35 35 36 37 36 36 36 36 36 36 36 36 35 35 35 34 34 33 31 31 33 34 34 36 35 34 35 35 35 34 34 31 30 31 31 31 31 31 32 33 34 34 34 34 34 34 34 29 25 24 24 22 22 23 22 24 21 21 20 23 22 24 25 25 25 26 26